Погода в Кузнецком

Россия / Челябинская область     55°29′32″N   60°38′21″E
темп.,
°C
ветер,
м/с
пор.,
м/с
влажн.,
%
обл.,
%
осадки,
мм/ч
давл.,
гПа
погр.,
м
2 июля, сб
сб223:00+12сз118397 0.2 101410
02:00+10сз2290100 0.0 101423
05:00+10сз2288100 0.0 101419
08:00+14сз2376100 0.0 1014200
11:00+18ссв2355100 0.0 10131219
14:00+17св3469100 0.2 1013372
17:00+19ссз2455100 0.3 10131244
20:00+17св117079 0.1 101211
3 июля, вс
вс323:00+13юз11815 0.1 101311
02:00+11зсз228526 0.0 101212
05:00+11з228712 0.0 101221
08:00+16зюз227141 0.0 1011216
11:00+20ссв225796 0.1 1009994
14:00+21в225230 0.5 10081687
17:00+19св226796 1.2 1007339
20:00+15зсз2283100 2.6 100718
4 июля, пн
пн423:00+13ссв51096100 3.4 1007308
02:00+12ссв51098100 1.2 1006402
05:00+12ссв51098100 1.7 1006527
08:00+11ссв61097100 0.1 1007685
11:00+11св71191100 0.1 1007866
14:00+12св61187100 0.2 1007994
17:00+14св6107893 0.8 10081290
20:00+12св6127593 0.1 1009642
5 июля, вт
вт523:00+10ссв5128114 0.1 1010489
02:00+7с511935 0.0 1011328
05:00+6с411935 0.0 1012296
08:00+11ссв69725 0.0 1012594
11:00+12ссв5875100 0.0 1013775
14:00+14ссв576498 0.0 10131069
17:00+14св4770100 0.1 1014459
20:00+14ссв237669 0.0 101488
6 июля, ср
ср623:00+12зсз3567100 0.0 101583
02:00+11сз367047 0.0 1015128
05:00+9зсз467868 0.0 1016103
08:00+14зсз46668 0.0 1015332
11:00+17сз556394 0.0 1015781
14:00+20сз245275 0.0 10141514
17:00+20сз455987 0.0 10151099
20:00+17зсз258092 0.0 1015134